Track CELESTIS 16 (OTB) now! 10-day predictions CELESTIS 16 (OTB) is classified as:
1 44341U 19036C 26093.67663526 .00002312 00000-0 45618-3 0 9991 2 44341 23.9962 92.2935 0010468 265.1679 94.7618 14.57069015360499